Location: Poughquag
(41.6090°N, 73.6820°W)
Time: 10:58:31
(UTC-05:00)

ISS - Pass Details

Date: 25 January 2020
Orbit: 415 x 422 km, 51.6° (Epoch: 26 February)

Event Time Altitude Azimuth Distance (km) Brightness Sun altitude
Rises 19:22:36 0° 289° (WNW) 2,377 1.2 -26.4°
Reaches altitude 10° 19:25:19 10° 312° (NW) 1,511 -0.4 -26.9°
Enters shadow 19:26:00 13° 323° (NW) 1,356 -0.8 -27.0°
